Flag for Germany Weather past 2 weeks in Rotenburg (Wümme), Lower Saxony, Germany

Now
43 °F

Fog.


Feels Like: 43 °F
Forecast: 50 / 59 °F
Wind: 1 mph from South

Location: Bremen

Current Time: Sep 23, 2014 at 8:50:13 AM

Latest Report: Sep 23, 2014 at 8:00 AM


Visibility: 16 mi

Pressure: 30.13 "Hg

Humidity: 99%

Dew point: 43 °F

Location of Rotenburg (Wümme)Location

Historic Weather in Rotenburg (Wümme) — Graph

°F

Rotenburg (Wümme) temperature yesterday

Maximum temperature yesterday: 60 °F (at 5:00 PM)
Minimum temperature yesterday: 49 °F (at 10:00 AM)
Average temperature yesterday: 56 °F

Past Weeks' High & Low Weather Summary

 TemperatureHumidityPressure
High77 °F (Sep 18, 4:00 PM)100% (Sep 12, 7:00 AM)30.27 "Hg (Sep 12, 7:00 AM)
Low43 °F (Sep 23, 8:00 AM)48% (Sep 8, 3:00 PM)29.88 "Hg (Sep 19, 4:00 PM)
Average61 °F80%30.05 "Hg
* Reported Sep 8 8:00 AM — Sep 23 8:00 AM, Rotenburg (Wümme), Weather by CustomWeather, © 2014

Note: Actual official high and low records may vary slightly from our data, if they occured in-between our weather recording intervals... More about our weather records

Advertising

Rotenburg (Wümme) weather history for previous 24 hours

 ConditionsComfort  
Time TempWeatherWind HumidityBarometerVisibility
8:00 AM
Sep 23
43 °FFog.1 mph99%30.13 "Hg16 mi
7:00 AM43 °FPassing clouds.1 mph99%30.13 "Hg16 mi
6:00 AM44 °FPassing clouds.1 mph98%30.11 "Hg25 mi
5:00 AM45 °FPassing clouds.2 mph96%30.11 "Hg25 mi
4:00 AM45 °FPassing clouds.1 mph96%30.12 "Hg25 mi
3:00 AM44 °FClear.3 mph87%30.12 "Hg25 mi
2:00 AM49 °FPassing clouds.2 mph85%30.12 "Hg25 mi
1:00 AM49 °FPassing clouds.3 mph82%30.11 "Hg25 mi
12:00 AM53 °FPassing clouds.3 mph77%30.10 "Hg25 mi
10:00 PM
Sep 22
57 °FOvercast.5 mph63%30.09 "Hg25 mi
9:00 PM57 °FOvercast.8 mph64%30.07 "Hg25 mi
8:00 PM57 °FOvercast.8 mph61%30.06 "Hg25 mi
7:00 PM58 °FOvercast.10 mph57%30.05 "Hg22 mi
6:00 PM58 °FPartly sunny.12 mph55%30.03 "Hg22 mi
5:00 PM60 °FPartly sunny.12 mph53%30.01 "Hg22 mi
4:00 PM58 °FPartly sunny.10 mph57%30.01 "Hg22 mi
3:00 PM59 °FPartly sunny.10 mph50%29.99 "Hg25 mi
2:00 PM59 °FScattered clouds.8 mph49%29.99 "Hg25 mi
1:00 PM58 °FPartly sunny.8 mph55%29.98 "Hg22 mi
12:00 PM56 °FScattered clouds.7 mph72%29.97 "Hg22 mi
11:00 AM52 °FScattered clouds.6 mph84%29.96 "Hg19 mi
10:00 AM49 °FCool.9 mph85%29.96 "HgN/A
9:00 AM50 °FSprinkles. Overcast.7 mph90%29.93 "Hg5 mi
8:00 AM53 °FSprinkles. Partly sunny.8 mph79%29.94 "Hg9 mi
Weather by CustomWeather, © 2014

See weather overviewHow to use our weather pages